Location: Easter Hill Village
(37.9235°N, 122.3444°W)
Time: 13:44:20
(UTC+00:00)

Aureole 2 Rocket - Pass Details

Date: 16 September 2019
Orbit: 313 x 474 km, 73.9° (Epoch: 21 October)

Event Time Altitude Azimuth Distance (km) Brightness Sun altitude
Exits shadow 12:52:19 10° 199° (SSW) 1,283 4.4 -12.4°
Reaches altitude 10° 12:52:21 10° 199° (SSW) 1,264 4.4 -12.4°
Maximum altitude 12:55:05 84° 287° (WNW) 332 1.6 -11.9°
Drops below altitude 10° 12:57:45 10° 17° (NNE) 1,231 5.0 -11.4°
Sets 12:59:39 0° 18° (NNE) 2,057 6.2 -11.0°
